COSMOS 1084

Satellite information

Favourite Embed

Satellite Type and Status

PAYLOADIN ORBIT

Key statistics

Satellite COSMOS 1084 at a glance.

Uptime

16918

Days in orbit

Revolutions

≈ 12.5

Per day

Orbit

LEO

Low Earth Orbit

Inclination

74.0

Latest

Satellite identification and parameters

Extended collection of information and parameters for COSMOS 1084.

Object identification

Identified? True

Debris? False

Object name: COSMOS 1084

International designator: 1979-024D

Object number (NORAD): 11299

Object ID (CCSDS): 11299

Country: COMMONWEALTH OF INDEPENDENT STATES (CIS)

Current information (Y/N): Y

RCS size: MEDIUM

Orbital parameters

Period: 115.155 minutes

Inclination: 74.0338 deg

SMA: 7840.597 km

Apoapsis: 1464.181 km

Periapsis: 1460.743 km

RAAN: 55.7639 deg

Eccentricy: 0.0002192

Argument of periapsis: 268.5369 deg

Mean anomaly: 103.1722 deg

Mean motion: 12.50486651 rev/day

Mean motion (dot): 0.00000003 rev/day2

B* drag term: 0.00012437 1/REarth

Two-line elements (TLE)

Creation date: July 9, 2025, 2:22 a.m.

Reference frame: TEME

Reference center: EARTH

Epoch: July 8, 2025, 8:36 p.m. UTC

TLE line 0: 0 COSMOS 1084

TLE line 1: 1 11299U 79024D 25189.85851943 .00000003 00000-0 12437-3 0 9995

TLE line 2: 2 11299 74.0338 55.7639 0002192 268.5369 103.1722 12.50486651114197

Live tracking on map

Real-time ground track for satellite COSMOS 1084.

In-orbit conjunctions

There are no conjunctions computed for COSMOS 1084, at the moment. Check back to stay up to date, as we update our databases every day.

Go to all conjunctions

Associated space launch

Military communications satellites

COSMOS 1084 was lifted into orbit during the mission ‘Kosmos-3M | Strela-1M 169-176’, on board a Kosmos-3M space rocket.

The launch took place on March 15, 1979, 2:58 a.m. from 132/2.

For more information about the launch, click the button.

Launch to space Kosmos-3M | Strela-1M 169-176
Kosmos-3M | Strela-1M 169-176

Agency: N/A

Status: Launch Successful

Launch date: March 15, 1979, 2:58 a.m. UTC

Rocket: Kosmos-3M

Launch pad: 132/2

Location: Plesetsk Cosmodrome, Russian Federation

...

Latest news about this satellite

There are no fresh news available about this satellite. Check back as we update our databases every day.


Newsletter sign-up

Weekly statistics, charts and insights to help you stay on top of the space industry.